Погода в Павлодаре

Погода в Павлодаре : погода сейчас, прогноз погоды и архив. Всё, что Вы хотите узнать о погоде в Павлодаре!

Поиск расширенной информации на нашем сайте:

Полезная информация: http://vengriya-opt.com.ua/ купить нижнее белье оптом.
Эти новые рецепты закусок не оставят вас равнодушными

Другие новости

Новости СМИ2

Главная страница сайта

Новости сайта

03.07.2017

Напоминаем, что на нашем специализированном сайте Метеоцентр.Азия вы можете получить высокодетализированные автоматические прогнозы погоды по пунктам России, СНГ и мира в авиационном формате (включающие направление и скорость ветра, видимость, явления погоды, количество и форму облачности, нижнюю и верхнюю границу облачности).

Рекомендуем: Заливка фундамента в Калуге КСК строительство домов в Калуге.

Погода в Павлодаре - сегодня

Время (UTC), дата Ветер
(°,м/с) 
Видим.   Явления Облачность Т
(°С)
Тd
(°С)
f(%) Тe
(°С)
Pmin
(гПа)
dP
(гПа)
Po
(мм)
O2
(г/м3)
Тmin Tmax R s Состояние
почвы
12 20.08.17 310 (СЗ) 20000 м    6/3 1000 м кучево-дожд., средняя 
[Cb cap|Ac trans]
+21.6 +6.7 38 +22  1021.4  -0.4  756  281           
15 20.08.17 300 (СЗ) 20000 м    8/3 1000 м средняя 
[Sc|Ac trans]
+15 +8.2 64 +16  1022.5  0.8  756  287    +23.6       
18 20.08.17 тихо ()   20000 м    6/0 средняя, верхняя 
[Ac trans|Ci fib]
+11 +8.1 82 +11  1022.9  0.1  756  292    +23.6       
21 20.08.17 тихо ()   20000 м    8/0 средняя, верхняя 
[Ac trans|Ci fib]
+11.2 +8.8 85 +11  1022.3  -0.5  756  291           
00 21.08.17 тихо ()   20000 м    4/0 средняя, верхняя 
[Ac trans|Ci fib]
+8.9 +7.4 90 +9  1022.7  0.3  756  294           
03 21.08.17 350 (С) 20000 м    3/0 верхняя 
[Ci fib]
+16.7 +10.5 67 +20  1022.8  0.4  756  285           
06 21.08.17 330 (СЗ) 20000 м    8/6 1000 м верхняя 
[Cu hum|Ci fib]
+22.2 +10.1 46 +23  1022.3  -0.2  756  280  +8.5         
09 21.08.17 330 (СЗ) 20000 м    8/5 1000 м верхняя 
[Cu hum|Ci fib]
+23.4 +7 35 +23  1021.4  -0.8  756  279           
12 21.08.17 350 (С) 20000 м    5/3 1000 м верхняя 
[Cu hum|Ci fib]
+24.1 +6.4 32 +24  1021  -0.4  755  279           
15 21.08.17 310 (СЗ) 20000 м    4/0 средняя 
[Ac trans]
+17 +10.2 64 +19  1022  0.7  756  285    +26.6       
18 21.08.17 010 (С) 20000 м    3/0 средняя 
[Ac trans]
+14.4 +10 75 +17  1022.3  0.1  756  288    +26.6       
21 21.08.17 тихо ()   20000 м    ясно 
+10.9 +7.6 80 +11  1022.5  756  292           
00 22.08.17 020 (С) 20000 м    ясно 
+10.1 +8.5 90 +11  1023.1  0.6  756  292           
03 22.08.17 350 (С) 20000 м    3/0 верхняя 
[Ci fib]
+18.8 +11.3 62 +23  1023.2  0.5  757  283           
06 22.08.17 350 (С) 20000 м    3/0 верхняя 
[Ci fib]
+24.1 +8.4 37 +24  1023  0.1  757  279  +9.1         
09 22.08.17 010 (С) 20000 м    5/1 1000 м верхняя 
[Cu hum|Ci fib]
+25.7 +9 35 +26  1021.7  -1.2  756  277           
12 22.08.17 250 (З) 20000 м    5/3 1000 м кучево-дожд., средняя, верхняя 
[Cb cap|Ac trans|Ci fib]
+25.4 +11.5 42 +28  1020.9  -0.8  755  276           
15 22.08.17 тихо ()   20000 м    3/0 средняя 
[Ac trans]
+19.1 +13.3 69 +25  1021.5  0.3  756  282    +26.5       
18 22.08.17 тихо ()   20000 м    5/0 средняя, верхняя 
[Ac trans|Ci fib]
+14.8 +12.6 87 +19  1021.7  756  286    +26.5       
21 22.08.17 тихо ()   20000 м    3/0 верхняя 
[Ci fib]
+13.2 +11.5 89 +16  1021.7  -0.1  755  288           
00 23.08.17 020 (С) 20000 м    5/3 1000 м кучево-дожд., средняя 
[Cb cap|Ac trans]
+13.4 +11.3 87 +18  1022.2  0.5  756  288           
03 23.08.17 350 (С) 20000 м    3/0 средняя, верхняя 
[Ac trans|Ci fib]
+21.4 +15 67 +30  1023.4  1.6  757  280           
06 23.08.17 350 (С) 20000 м    8/8 1000 м 
[Cu hum]
+25.5 +15.8 55 +35  1023.7  0.5  757  276  +12.1         
09 23.08.17 360 (С) 20000 м    8/0 верхняя 
[Ci fib]
+27 +6 26 +27  1023.8  0.1  758  277           
12 23.08.17 060 (СВ) 20000 м    3/0 верхняя 
[Ci fib]
+26.2 +7.3 30 +26  1024.4  0.6  758  278           
Время (UTC), дата Ветер
(°,м/с) 
Видим.   Явления Облачность Т
(°С)
Тd
(°С)
f(%) Тe
(°С)
Pmin
(гПа)
dP
(гПа)
Po
(мм)
O2
(г/м3)
Тmin Tmax R s Состояние
почвы

Для получения пояснительной информации подведите курсор к названию столбца.

ПОГОДА в Павлодаре - архив

Всё, что Вы хотите узнать о погоде в Павлодаре - удобно и подробно!

Выберите нужную дату (начиная с 1 января 2015* года) и нажмите кнопку "Найти".
Будут отображены архивные сводки погоды по пункту Павлодар, начиная с указанной даты.


Отображать данные в формате CSV (для использования в таблицах Excel)


Внимание! Наш архив погоды предназначен исключительно для личного некоммерческого использования в познавательных целях. Если Вам необходимы официальные справки о состоянии погоды (для производственных, юридических, коммерческих и т.п. целей), обращайтесь в органы Росгидромета.

*Примечание: данная дата относится к архиву по метеостанциям СССР (Россия, СНГ, Балтия).
Архив по метеостанциям Зарубежной Европы и Азии (кроме Китая) хранится 10 дней, по другим регионам земного шара (Китай, Африка, Америка, Австралия, Океания) - 1 день.

Павлодар - район местоположения метеостанции


Название, широта, долгота, высота метеостанции:
Павлодар 52.1°ш. 77.1°д. 125 м над ур. моря [Казахстан]

Дополнительная информация

В oтличие oт бoльшинства пoгoдных сайтoв мы публикуем пoдрoбную метеoинфoрмацию в детальнoм прoфессиoнальнoм фoрмате.

Характеристики температуры и влажнoсти вoздуха измеряются на высoте 2 м в тени вдали oт зданий и деревьев.
Скoрoсть ветра измеряется на высoте 10 м (на урoвне рoста челoвека скoрoсть ветра ниже в 1.5-2 раза). Если метеoстанция нахoдится в гoрoде или в лесу, тo скoрoсть ветра занижена на 2-4 м/с пo сравнению с oткрытым местoм. Скoрoсть ветра над акватoриями крупных рек и oзёр, а также на вершинах хoлмoв на 2-5 м/с выше, чем в oбычных услoвиях.
Атмoсфернoе давление в разных тoчках местнoсти мoжет значительнo oтличаться oт давления на метеoстанции, в зависимoсти oт услoвий рельефа (при пoдъёме на 10 м давление пoнижается примернo на 1 мм рт.ст.).